Dewpoint
54 54 54 54 54 54 54 54 54 55 57 57 57 56 56 56 56 48 27 38 40 56 53 32 31 26 22 20 21 19 26 28 23 22 21 19 18 16 16 14 15 16 23 24 36
54 54 54 54 54 54 54 55 55 56 57 57 57 56 56 56 46 32 49 58 58 56 33 28 25 22 18 19 20 20 30 32 23 21 21 17 17 16 15 17 16 15 15 17 36
53 54 54 54 54 54 54 55 55 57 56 57 57 57 56 53 41 21 58 60 56 48 32 31 28 21 21 18 18 17 24 27 25 19 16 16 16 16 16 19 18 17 17 16 18
53 53 54 54 54 55 56 56 57 56 55 56 57 56 56 48 19 24 62 58 57 37 32 29 23 18 19 18 17 14 15 16 16 16 16 16 16 15 16 18 15 15 17 16 18
53 53 54 54 54 55 56 56 56 56 55 54 55 55 51 33 22 38 62 56 39 32 27 21 19 18 16 15 16 12 14 14 14 14 13 14 14 12 14 15 16 17 20 19 21
53 53 53 54 54 55 56 56 56 55 55 53 54 54 44 22 25 36 35 37 28 23 22 19 18 18 16 14 14 17 15 14 16 14 16 16 13 15 16 21 19 22 21 20 23
53 53 53 54 54 55 56 56 55 55 54 53 54 50 35 25 27 29 28 25 25 22 20 20 20 18 18 16 18 17 15 15 15 15 15 17 15 15 18 22 23 23 23 23 25
53 53 53 54 54 55 56 56 55 55 54 54 54 48 24 28 28 24 25 23 23 25 23 22 21 19 19 20 18 15 16 9 16 18 18 16 9 16 20 22 21 21 22 24 25
53 53 53 54 54 55 55 55 54 55 55 55 49 42 21 38 22 21 23 20 21 23 23 21 22 23 19 15 13 15 4 11 12 19 19 18 15 19 22 25 24 24 24 25 28
53 53 53 54 54 55 54 54 55 54 48 45 38 29 20 18 20 22 24 22 21 22 22 21 21 19 15 12 6 9 10 11 12 18 20 17 18 18 19 25 26 28 29 31 32
52 53 54 54 55 54 49 42 38 34 31 26 21 18 15 17 20 20 22 22 22 23 19 21 16 16 17 20 16 13 12 14 17 20 20 17 18 17 18 25 28 32 34 36 41
52 53 54 54 54 53 45 34 34 33 24 26 25 22 23 17 17 20 22 21 22 19 21 19 19 21 18 18 15 16 16 16 18 19 21 18 17 16 21 29 34 37 38 39 42
52 53 53 54 53 48 34 36 37 35 27 22 23 15 15 16 18 20 22 23 22 19 19 18 21 19 18 17 17 19 19 18 18 21 21 22 12 18 29 33 36 38 40 41 43
52 53 53 53 45 37 34 38 35 36 22 17 14 14 15 16 18 22 24 25 23 21 19 20 24 22 18 18 20 19 21 21 21 21 14 23 4 16 23 30 34 37 38 40 44
52 52 53 51 39 32 38 38 36 40 18 16 14 17 16 16 18 21 27 24 23 22 21 21 22 22 21 23 23 22 24 24 24 21 21 14 15 13 23 25 31 36 37 39 42
51 52 52 41 40 36 39 38 42 31 18 14 15 16 14 15 15 19 25 28 28 22 21 23 25 24 25 24 25 25 25 24 24 18 10 17 15 4 14 22 24 33 36 38 39
51 51 49 41 36 39 40 37 30 22 20 15 17 20 17 17 18 21 24 28 24 23 20 21 23 23 24 22 25 24 23 13 9 8 7 21 15 13 20 23 25 30 35 38 39
50 49 49 38 40 43 41 33 26 17 16 22 22 21 22 23 22 23 24 25 28 24 22 19 21 22 23 22 20 21 22 15 11 6 5 14 14 19 27 30 29 33 35 37 39
49 49 42 39 42 45 38 29 25 21 19 17 21 20 23 23 24 24 27 26 26 28 27 20 18 22 23 23 22 22 20 25 20 18 18 12 14 19 22 24 31 33 36 36 39
50 46 36 40 47 46 32 28 25 24 22 19 18 21 21 22 21 22 24 27 25 27 31 29 24 25 24 25 25 23 24 24 25 25 15 6 11 7 21 27 29 30 34 38 39
49 35 37 40 44 37 30 28 25 27 27 25 22 23 23 22 23 22 25 30 31 31 30 30 30 26 25 22 23 23 23 25 27 24 20 15 10 28 27 27 30 28 31 33 36
45 28 36 41 32 34 29 30 34 28 28 27 28 27 26 27 24 23 26 32 32 32 29 34 33 27 24 27 29 28 28 28 35 27 27 30 26 22 29 27 29 26 32 34 36
35 32 33 42 27 30 33 28 28 28 31 29 29 30 31 30 34 28 30 34 36 32 32 34 32 30 25 29 29 28 29 29 30 35 32 30 24 22 22 22 23 30 32 34 35
33 24 26 34 37 34 32 29 27 28 29 31 30 31 30 29 31 29 27 32 32 30 41 37 33 29 26 21 21 21 20 21 26 37 27 22 18 20 22 24 29 32 34 32 34
32 32 35 27 30 33 33 29 25 28 27 30 30 29 29 36 27 24 28 27 26 37 36 34 27 23 22 20 20 19 19 19 21 22 30 24 20 20 24 28 31 33 35 35 35
30 32 34 34 34 32 33 30 27 28 30 27 29 28 29 30 32 29 28 28 29 31 32 32 27 28 26 21 22 21 21 22 21 21 21 21 22 23 29 31 33 35 34 35 36
37 39 36 31 29 28 30 30 29 30 30 30 31 30 29 31 34 34 35 35 35 34 33 31 35 35 23 23 21 20 21 18 20 21 24 26 26 28 31 34 36 37 36 36 36
Lifted_Index
14 14 13 13 13 13 13 13 12 11 10 9 9 8 8 8 7 6 7 7 8 8 7 5 5 5 4 3 3 2 2 2 3 4 4 5 5 5 5 6 6 6 7 6 6
14 14 13 13 13 13 13 12 11 10 10 9 8 8 8 7 6 6 7 7 8 7 6 5 5 5 5 4 3 3 2 2 3 4 5 6 6 6 5 5 6 7 7 7 6
14 14 13 13 13 13 12 12 11 10 9 9 8 8 7 6 5 6 7 7 8 7 6 5 5 5 5 5 4 3 3 3 3 4 6 6 6 6 6 6 6 7 8 8 8
14 14 14 13 13 13 12 11 11 10 10 9 8 7 6 5 6 6 6 7 7 7 6 6 5 5 5 5 5 5 5 5 5 5 6 6 6 6 6 7 8 8 9 9 9
14 14 14 14 13 13 12 11 11 10 10 9 8 7 6 5 6 6 6 6 7 6 6 6 6 6 6 6 6 6 6 7 7 7 7 7 7 7 7 8 9 9 9 9 9
14 14 14 13 13 13 12 11 11 10 9 8 8 7 6 6 7 6 6 7 7 7 7 7 7 7 7 7 7 7 7 7 8 8 8 8 8 8 8 9 9 9 9 9 9
14 14 13 13 13 12 12 11 10 10 9 8 7 6 6 7 7 7 7 7 7 7 7 7 8 8 8 8 7 7 6 7 8 8 8 8 8 8 9 9 9 9 9 9 9
14 13 13 12 12 12 11 11 10 10 9 8 7 6 6 7 8 8 8 7 7 7 8 8 8 8 8 7 7 6 6 6 7 8 9 8 7 8 9 9 9 9 9 9 9
14 13 12 11 11 11 10 10 10 10 9 8 7 6 7 8 8 8 8 8 8 8 8 8 8 7 7 6 6 5 5 6 7 8 9 8 8 8 9 9 9 8 8 8 8
13 12 11 11 10 10 10 9 9 9 9 8 8 7 8 8 8 8 8 8 8 7 7 7 7 6 6 6 5 5 5 6 7 8 9 8 8 9 9 9 8 7 7 7 7
13 12 11 11 10 10 9 9 8 8 8 8 9 9 9 9 9 9 9 8 8 7 7 7 6 6 7 7 6 6 6 6 7 8 9 8 9 9 9 8 7 6 6 5 5
13 12 11 11 10 9 9 8 8 8 8 8 9 9 9 9 9 9 8 8 7 7 7 6 6 7 7 7 7 7 7 7 8 8 8 8 8 8 8 7 6 5 5 4 4
12 11 11 10 10 9 9 9 9 8 8 8 9 9 9 9 9 8 8 7 7 7 7 6 7 7 7 7 7 7 7 7 7 7 7 7 6 6 7 6 5 4 4 3 3
10 10 10 10 9 9 9 9 9 8 7 7 8 9 9 8 8 8 8 7 7 7 7 7 7 7 7 7 6 6 7 7 7 6 6 5 5 5 6 5 4 4 3 3 2
10 9 9 9 9 8 9 9 8 6 6 7 8 8 8 8 8 8 7 7 6 6 6 6 6 6 6 6 6 6 6 6 6 5 5 4 4 4 5 5 4 3 3 2 2
9 9 9 9 8 8 8 8 7 5 5 7 8 8 7 7 7 7 6 6 5 6 6 6 6 6 6 6 6 6 5 5 5 4 3 4 3 3 4 4 4 3 2 2 2
8 8 8 8 8 8 7 6 5 5 6 7 7 7 6 6 6 6 5 5 5 5 5 5 5 5 5 5 5 5 4 3 2 2 2 3 3 3 3 4 3 3 2 2 2
8 8 7 7 7 7 6 5 5 5 6 6 6 5 5 5 5 5 4 4 4 4 4 4 4 5 5 5 5 4 4 3 2 1 2 3 3 3 3 3 3 2 2 2 2
6 6 7 7 6 5 5 5 5 6 6 6 5 5 4 4 4 4 4 4 4 4 4 4 4 5 5 5 5 4 4 3 2 2 2 2 3 3 3 3 3 2 2 1 1
5 5 6 6 6 4 4 5 5 6 5 5 5 5 4 4 4 4 4 4 4 4 4 4 4 4 4 4 4 4 3 3 2 2 1 2 2 2 3 3 3 3 3 2 2
4 5 6 6 5 4 4 5 5 5 5 5 5 5 5 5 5 4 4 4 4 4 4 4 3 3 4 4 4 3 3 3 2 2 1 2 2 2 2 2 3 3 4 3 3
5 6 6 6 5 4 4 5 5 5 5 5 5 5 5 4 4 4 4 4 4 4 4 4 3 3 3 3 3 3 3 3 3 2 2 2 3 3 2 2 3 3 4 3 3
6 6 6 5 4 4 4 5 5 5 5 5 4 4 4 4 4 4 4 4 5 5 4 4 3 3 3 3 4 4 3 3 3 3 3 3 3 3 3 3 3 3 3 3 3
6 6 6 6 5 4 4 5 5 5 5 5 4 4 4 4 4 4 4 5 5 5 4 4 4 3 3 4 4 4 4 4 4 3 3 4 4 3 3 3 3 2 2 2 2
7 7 6 6 5 5 5 5 5 5 5 5 5 5 5 5 5 5 5 5 5 5 5 4 4 4 4 4 5 4 4 4 4 4 3 3 3 3 3 2 2 2 2 2 2
7 7 7 6 6 5 5 5 5 5 5 5 5 5 5 5 5 5 5 5 5 5 5 5 4 4 4 5 5 4 4 4 4 4 3 3 2 2 2 2 2 2 2 3 3
8 8 7 6 6 6 5 5 5 6 6 6 5 5 5 5 5 5 5 5 5 5 5 5 4 4 4 4 4 4 4 5 4 4 3 2 2 2 2 3 3 3 3 3 3